User: anonymous   Login
Location: Unspecified
(0.0000°N, 0.0000°E)
Time: 23:34:33
(UTC+00:00)
Language:

USA 255 - Orbit

View from above orbital plane
View from above orbital plane
View from above satellite
View from above satellite

Ground track
Ground track

The orbit data is extracted from the following two-line orbital elements,

1 40101U 14043C   18112.72330142 0.00000000  00000-0  00000-0 0    06
2 40101   2.4131  75.1905 0014091 238.9179 120.9561  0.98722358    08
Epoch (UTC): 22 April 2018 17:21:33
Eccentricity: 0.0014091
inclination: 2.4131°
perigee height: 36166 km
apogee height: 36286 km
right ascension of ascending node: 75.1905°
argument of perigee: 238.9179°
revolutions per day: 0.98722358
mean anomaly at epoch: 120.9561°
orbit number at epoch: 0

The dashed part of the orbit path shows where the satellite is in the earth's shadow,  

DLR